Farmingdale, NY

3:50 AM EST on December 17, 2017 (GMT -0500)
Republic

Weather History for KFRG - February, 2013

Change the Weather History Date:

Thursday, February 28, 2013

  Actual Average Record
Temperature  
Mean Temperature 44 °F -  
Max Temperature 48 °F 42 °F 60 °F (1997)
Min Temperature 39 °F 28 °F 9 °F (2014)
Degree Days  
Heating Degree Days 20    
Moisture  
Dew Point 34 °F    
Average Humidity 70    
Maximum Humidity 89    
Minimum Humidity 56    
Precipitation  
Precipitation 0.00 in - - ()
Sea Level Pressure  
Sea Level Pressure 29.59 in    
Wind  
Wind Speed 3 mph (WNW)    
Max Wind Speed 13 mph    
Max Gust Speed 21 mph    
Visibility 9 miles    
Events Rain    
Averages and records for this station are not official NWS values.
T = Trace of Precipitation, MM = Missing Value Source: NWS Daily Summary

Daily Weather History Graph

Daily Weather History Graph

Search for Another Location

Airport or City:

Trip Planner

Search our weather history database for the weather conditions in past years. The results will help you decide how hot, cold, wet, or windy it might be!

Date:

Astronomy

Feb. 28, 2013 Rise Set
Actual Time 6:28 AM EST 5:44 PM EST
Civil Twilight 6:01 AM EST 6:11 PM EST
Nautical Twilight 5:29 AM EST 6:43 PM EST
Astronomical Twilight 4:57 AM EST 7:15 PM EST
Moon 9:09 PM EST (2/28) 7:35 AM EST (2/28)
Length of Visible Light 12h 10m
Length of Day
11h 15m
Waning Gibbous, 91% of the Moon is Illuminated
Feb 28
Waning Gibbous
Mar 4
Last Quarter
Mar 11
New
Mar 19
First Quarter
Mar 27
Full

Hourly Weather History & Observations

Time (EST) Temp. Windchill Dew Point Humidity Pressure Visibility Wind Dir Wind Speed Gust Speed Precip Events Conditions
12:53 AM 41.0 °F - 35.1 °F 79% 29.63 in 10.0 mi Calm Calm - N/A   Overcast
2:53 AM 41.0 °F - 37.0 °F 86% 29.61 in 10.0 mi Calm Calm - N/A   Overcast
3:53 AM 41.0 °F - 37.0 °F 86% 29.61 in 8.0 mi Calm Calm - N/A   Overcast
4:53 AM 41.0 °F - 37.9 °F 89% 29.62 in 7.0 mi Calm Calm - 0.00 in Rain Light Rain
5:53 AM 41.0 °F 39.0 °F 37.9 °F 89% 29.61 in 7.0 mi SW 3.5 mph - 0.00 in Rain Light Rain
6:53 AM 41.0 °F 39.0 °F 37.0 °F 86% 29.62 in 8.0 mi SW 3.5 mph - 0.00 in   Mostly Cloudy
7:53 AM 43.0 °F 39.5 °F 37.0 °F 80% 29.62 in 8.0 mi SW 5.8 mph - N/A   Overcast
8:53 AM 44.1 °F 40.1 °F 37.9 °F 79% 29.62 in 8.0 mi West 6.9 mph - N/A   Partly Cloudy
9:53 AM 46.0 °F 42.5 °F 37.0 °F 71% 29.61 in 10.0 mi West 6.9 mph - N/A   Scattered Clouds
10:16 AM 46.4 °F 42.4 °F 37.4 °F 71% 29.61 in 10.0 mi WNW 8.1 mph - N/A   Mostly Cloudy
10:53 AM 46.9 °F - 37.0 °F 68% 29.59 in 10.0 mi NW 6.9 mph - N/A   Mostly Cloudy
11:53 AM 48.0 °F - 37.0 °F 66% 29.58 in 10.0 mi North 4.6 mph - N/A   Overcast
12:16 PM 48.2 °F - 35.6 °F 62% 29.56 in 10.0 mi Calm Calm - N/A   Overcast
12:53 PM 48.0 °F - 35.1 °F 61% 29.55 in 10.0 mi WNW 5.8 mph - N/A   Overcast
1:53 PM 46.9 °F - 33.1 °F 59% 29.55 in 10.0 mi West 4.6 mph - N/A   Overcast
2:53 PM 45.0 °F 41.8 °F 36.0 °F 71% 29.55 in 9.0 mi SSW 5.8 mph - 0.00 in   Overcast
4:53 PM 46.0 °F 41.9 °F 30.9 °F 56% 29.54 in 10.0 mi NNW 8.1 mph - N/A   Overcast
5:53 PM 46.0 °F 42.5 °F 32.0 °F 58% 29.55 in 10.0 mi NNW 6.9 mph - 0.00 in   Overcast
6:53 PM 44.1 °F 40.8 °F 32.0 °F 63% 29.57 in 10.0 mi NW 5.8 mph - 0.00 in Rain Light Rain
7:53 PM 43.0 °F 38.8 °F 30.0 °F 60% 29.58 in 10.0 mi NNW 6.9 mph - 0.00 in   Overcast
8:53 PM 43.0 °F 36.4 °F 28.9 °F 58% 29.59 in 10.0 mi NNW 12.7 mph 20.7 mph N/A   Overcast
9:53 PM 42.1 °F 39.2 °F 28.0 °F 58% 29.59 in 10.0 mi NW 4.6 mph - N/A   Overcast
10:53 PM 41.0 °F 38.0 °F 28.9 °F 62% 29.59 in 10.0 mi NW 4.6 mph - N/A   Overcast
11:53 PM 39.9 °F 34.5 °F 28.9 °F 65% 29.59 in 10.0 mi WNW 8.1 mph - N/A   Overcast